Погода в Новогеоргиевке

Россия / Приморский край     44°01′46″N   131°24′12″E
темп.,
°C
ветер,
м/с
пор.,
м/с
влажн.,
%
обл.,
%
осадки,
мм/ч
давл.,
гПа
погр.,
м
20 июня, вс
вс2001:00+12юв22945 0.0 100134
04:00+11ю11949 0.0 100113
07:00+12юз2392100 0.0 1002117
10:00+18юз2369100 0.0 10021017
13:00+17в2374100 0.1 1002455
16:00+17вюв3371100 0.2 1002454
19:00+13в5887100 0.8 1004403
22:00+12в359196 1.2 1005220
21 июня, пн
пн2101:00+11св2295100 0.1 100686
04:00+11св2396100 0.1 1006180
07:00+11ссв139598 0.1 1008172
10:00+14ссв2384100 0.3 1008704
13:00+16ссв3562100 0.1 10081107
16:00+15всв246975 0.1 1008626
19:00+16ю117592 0.3 1009235
22:00+12зсз118733 0.3 101011
22 июня, вт
вт2201:00+12зсз118559 0.0 101111
04:00+10зсз11925 0.0 101110
07:00+12з11895 0.0 101267
10:00+18сз12685 0.0 1012543
13:00+22в23540 0.0 10111244
16:00+23в33500 0.0 10101583
19:00+22в22620 0.0 1010589
22:00+16всв01810 0.0 101111
23 июня, ср
ср2301:00+13сз00890 0.0 101210
04:00+12з11910 0.0 101211
07:00+13з12860 0.0 101368
10:00+20з22630 0.0 1012415
13:00+26в11473 0.0 1011949
16:00+27в22380 0.0 10091470
19:00+25вюв23570 0.0 1009122
22:00+15вюв22870 0.0 101118
24 июня, чт
чт2401:00+14юв00910 0.0 101111
04:00+13юз01905 0.0 101011
07:00+15юз1185100 0.0 101148
10:00+22зюз2262100 0.0 1010406
13:00+27юв11478 0.0 1009782
16:00+29юв324140 0.0 10081226
19:00+24с236690 0.0 100892
22:00+20в117683 0.0 101013